Location: Ferintosh
(52.7647°N, 112.9692°W)
Time: 01:50:38
(UTC+00:00)

S-56A Canister/Altair - Pass Details

Date: 22 May 2024
Orbit: 637 x 2489 km, 38.9° (Epoch: 20 June)

Event Time Altitude Azimuth Distance (km) Brightness Sun altitude
Rises 12:57:26 0° 210° (SSW) 5,916 11.6 11.7°
Reaches altitude 10° 13:02:44 10° 198° (SSW) 4,674 11.2 12.4°
Maximum altitude 13:11:17 22° 155° (SSE) 3,273 10.9 13.7°
Drops below altitude 10° 13:18:04 10° 110° (ESE) 3,618 12.0 14.7°
Sets 13:21:29 0° 95° (E) 4,304 12.8 15.2°
